Time,TemperatureF,DewpointF,PressureIn,WindDirection,WindDirectionDegrees,WindSpeedMPH,WindSpeedGustMPH,Humidity,HourlyPrecipIn,Conditions,Clouds,dailyrainin,SoftwareType,DateUTC
2013-01-25 00:02:00,23.7,12.2,30.31,SE,127,5.0,5.0,61,0.00,,,0.00,Wunderground v.1.15,2013-01-25 06:02:00,
2013-01-25 00:12:00,23.7,12.2,30.31,SE,142,4.0,5.0,61,0.00,,,0.00,Wunderground v.1.15,2013-01-25 06:12:00,
2013-01-25 00:22:00,23.7,12.6,30.29,SE,129,4.0,4.0,62,0.00,,,0.00,Wunderground v.1.15,2013-01-25 06:22:00,
2013-01-25 00:32:00,23.8,12.7,30.30,SE,126,4.0,4.0,62,0.00,,,0.00,Wunderground v.1.15,2013-01-25 06:32:00,
2013-01-25 00:42:00,23.9,12.4,30.29,SE,124,4.0,5.0,61,0.00,,,0.00,Wunderground v.1.15,2013-01-25 06:42:00,
2013-01-25 00:52:00,24.1,12.6,30.28,ESE,119,5.0,8.0,61,0.00,,,0.00,Wunderground v.1.15,2013-01-25 06:52:00,
2013-01-25 01:02:00,24.2,12.3,30.28,SSE,160,4.0,11.0,60,0.00,,,0.00,Wunderground v.1.15,2013-01-25 07:02:00,
2013-01-25 01:12:00,24.3,12.4,30.27,SE,126,5.0,5.0,60,0.00,,,0.00,Wunderground v.1.15,2013-01-25 07:12:00,
2013-01-25 01:22:00,24.4,12.5,30.26,SE,140,6.0,6.0,60,0.00,,,0.00,Wunderground v.1.15,2013-01-25 07:22:00,
2013-01-25 01:32:00,24.5,12.2,30.26,SSE,153,5.0,5.0,59,0.00,,,0.00,Wunderground v.1.15,2013-01-25 07:32:00,
2013-01-25 01:42:00,24.5,12.2,30.26,ESE,123,5.0,8.0,59,0.00,,,0.00,Wunderground v.1.15,2013-01-25 07:42:00,
2013-01-25 01:52:00,24.6,12.3,30.25,SE,140,5.0,5.0,59,0.00,,,0.00,Wunderground v.1.15,2013-01-25 07:52:00,
2013-01-25 02:02:00,24.6,12.3,30.25,SE,133,4.0,4.0,59,0.00,,,0.00,Wunderground v.1.15,2013-01-25 08:02:00,
2013-01-25 02:12:00,24.7,12.4,30.24,ESE,107,4.0,4.0,59,0.00,,,0.00,Wunderground v.1.15,2013-01-25 08:12:00,
2013-01-25 02:22:00,24.7,12.4,30.24,SE,142,5.0,5.0,59,0.00,,,0.00,Wunderground v.1.15,2013-01-25 08:22:00,
2013-01-25 02:32:00,24.8,12.5,30.23,SE,130,4.0,4.0,59,0.00,,,0.00,Wunderground v.1.15,2013-01-25 08:32:00,
2013-01-25 02:42:00,24.8,12.5,30.23,SE,142,4.0,4.0,59,0.00,,,0.00,Wunderground v.1.15,2013-01-25 08:42:00,
2013-01-25 02:52:00,24.8,12.5,30.23,South,173,4.0,5.0,59,0.00,,,0.00,Wunderground v.1.15,2013-01-25 08:52:00,
2013-01-25 03:02:00,24.8,12.5,30.23,SE,136,3.0,3.0,59,0.00,,,0.00,Wunderground v.1.15,2013-01-25 09:02:00,
2013-01-25 03:12:00,24.9,12.6,30.21,SE,145,3.0,3.0,59,0.00,,,0.00,Wunderground v.1.15,2013-01-25 09:12:00,
2013-01-25 03:22:00,24.9,12.6,30.21,South,169,4.0,4.0,59,0.00,,,0.00,Wunderground v.1.15,2013-01-25 09:22:00,
2013-01-25 03:32:00,24.9,12.6,30.22,SSE,153,3.0,5.0,59,0.00,,,0.00,Wunderground v.1.15,2013-01-25 09:32:00,
2013-01-25 03:42:00,25.0,13.1,30.22,SSE,152,2.0,4.0,60,0.00,,,0.00,Wunderground v.1.15,2013-01-25 09:42:00,
2013-01-25 03:52:00,24.9,14.1,30.22,SSE,150,1.0,2.0,63,0.00,,,0.00,Wunderground v.1.15,2013-01-25 09:52:00,
2013-01-25 04:02:00,24.8,15.0,30.22,SSE,150,1.0,10.0,66,0.00,,,0.00,Wunderground v.1.15,2013-01-25 10:02:00,
2013-01-25 04:12:00,24.4,16.0,30.21,SSE,150,2.0,2.0,70,0.00,,,0.00,Wunderground v.1.15,2013-01-25 10:12:00,
2013-01-25 04:22:00,23.9,16.8,30.22,SSE,150,2.0,2.0,74,0.00,,,0.00,Wunderground v.1.15,2013-01-25 10:22:00,
2013-01-25 04:32:00,23.5,16.7,30.20,SSE,150,2.0,3.0,75,0.00,,,0.00,Wunderground v.1.15,2013-01-25 10:32:00,
2013-01-25 04:42:00,23.2,17.1,30.19,SE,134,3.0,3.0,77,0.00,,,0.00,Wunderground v.1.15,2013-01-25 10:42:00,
2013-01-25 04:52:00,23.0,17.5,30.18,SSE,161,3.0,3.0,79,0.00,,,0.00,Wunderground v.1.15,2013-01-25 10:52:00,
2013-01-25 05:02:00,22.9,17.4,30.17,SE,146,3.0,6.0,79,0.00,,,0.00,Wunderground v.1.15,2013-01-25 11:02:00,
2013-01-25 05:12:00,22.9,17.4,30.16,SE,144,3.0,4.0,79,0.00,,,0.00,Wunderground v.1.15,2013-01-25 11:12:00,
2013-01-25 05:22:00,23.0,17.5,30.17,SE,141,2.0,2.0,79,0.00,,,0.00,Wunderground v.1.15,2013-01-25 11:22:00,
2013-01-25 05:32:00,23.0,17.7,30.16,SE,135,1.0,2.0,80,0.00,,,0.00,Wunderground v.1.15,2013-01-25 11:32:00,
2013-01-25 05:42:00,23.1,17.3,30.16,SSE,155,3.0,3.0,78,0.00,,,0.00,Wunderground v.1.15,2013-01-25 11:42:00,
2013-01-25 05:52:00,23.3,17.2,30.16,SSE,157,3.0,3.0,77,0.00,,,0.00,Wunderground v.1.15,2013-01-25 11:52:00,
2013-01-25 06:02:00,23.4,16.9,30.16,SE,144,3.0,7.0,76,0.00,,,0.00,Wunderground v.1.15,2013-01-25 12:02:00,
2013-01-25 06:12:00,23.5,17.0,30.17,SSE,153,2.0,2.0,76,0.00,,,0.00,Wunderground v.1.15,2013-01-25 12:12:00,
2013-01-25 06:22:00,23.5,17.0,30.17,South,173,0.0,0.0,76,0.00,,,0.00,Wunderground v.1.15,2013-01-25 12:22:00,
2013-01-25 06:32:00,23.5,17.3,30.17,South,170,1.0,1.0,77,0.00,,,0.00,Wunderground v.1.15,2013-01-25 12:32:00,
2013-01-25 06:42:00,23.5,17.3,30.17,SSE,166,1.0,1.0,77,0.00,,,0.00,Wunderground v.1.15,2013-01-25 12:42:00,
2013-01-25 06:52:00,23.4,17.6,30.17,SSE,166,0.0,0.0,78,0.00,,,0.00,Wunderground v.1.15,2013-01-25 12:52:00,
2013-01-25 07:02:00,23.4,17.8,30.17,SSE,165,1.0,1.0,79,0.00,,,0.00,Wunderground v.1.15,2013-01-25 13:02:00,
2013-01-25 07:12:00,23.3,17.7,30.16,SSE,165,1.0,3.0,79,0.00,,,0.00,Wunderground v.1.15,2013-01-25 13:12:00,
2013-01-25 07:22:00,23.3,18.0,30.16,SSE,157,3.0,6.0,80,0.00,,,0.00,Wunderground v.1.15,2013-01-25 13:22:00,
2013-01-25 07:32:00,23.3,18.3,30.16,SSE,157,2.0,4.0,81,0.00,,,0.00,Wunderground v.1.15,2013-01-25 13:32:00,
2013-01-25 07:42:00,23.2,18.5,30.15,SSE,155,3.0,3.0,82,0.00,,,0.00,Wunderground v.1.15,2013-01-25 13:42:00,
2013-01-25 07:52:00,23.3,18.6,30.14,SSE,152,2.0,4.0,82,0.00,,,0.00,Wunderground v.1.15,2013-01-25 13:52:00,
2013-01-25 08:02:00,23.4,18.7,30.14,SSE,149,3.0,3.0,82,0.00,,,0.00,Wunderground v.1.15,2013-01-25 14:02:00,
2013-01-25 08:12:00,23.5,19.1,30.14,SSE,164,2.0,2.0,83,0.00,,,0.00,Wunderground v.1.15,2013-01-25 14:12:00,
2013-01-25 08:22:00,23.8,19.4,30.14,SSE,159,2.0,2.0,83,0.00,,,0.00,Wunderground v.1.15,2013-01-25 14:22:00,
2013-01-25 08:32:00,24.0,19.6,30.14,South,176,2.0,3.0,83,0.00,,,0.00,Wunderground v.1.15,2013-01-25 14:32:00,
2013-01-25 08:42:00,24.3,19.6,30.14,South,178,2.0,2.0,82,0.00,,,0.00,Wunderground v.1.15,2013-01-25 14:42:00,
2013-01-25 08:52:00,24.8,19.8,30.15,South,177,3.0,3.0,81,0.00,,,0.00,Wunderground v.1.15,2013-01-25 14:52:00,
2013-01-25 09:02:00,25.2,19.6,30.15,South,185,2.0,7.0,79,0.00,,,0.00,Wunderground v.1.15,2013-01-25 15:02:00,
2013-01-25 09:12:00,25.7,19.8,30.15,SSW,194,3.0,4.0,78,0.00,,,0.00,Wunderground v.1.15,2013-01-25 15:12:00,
2013-01-25 09:21:00,26.2,20.0,30.15,SSW,198,3.0,3.0,77,0.00,,,0.00,Wunderground v.1.15,2013-01-25 15:21:00,
2013-01-25 09:32:00,26.9,20.3,30.15,South,183,3.0,4.0,76,0.00,,,0.00,Wunderground v.1.15,2013-01-25 15:32:00,
2013-01-25 09:42:00,27.4,20.2,30.14,SW,227,4.0,4.0,74,0.00,,,0.00,Wunderground v.1.15,2013-01-25 15:42:00,
2013-01-25 09:51:00,27.8,19.9,30.14,SW,214,5.0,5.0,72,0.00,,,0.00,Wunderground v.1.15,2013-01-25 15:51:00,
2013-01-25 10:02:00,28.4,20.2,30.14,SW,226,4.0,4.0,71,0.00,,,0.00,Wunderground v.1.15,2013-01-25 16:02:00,
2013-01-25 10:12:00,29.1,20.5,30.13,West,259,7.0,11.0,70,0.00,,,0.00,Wunderground v.1.15,2013-01-25 16:12:00,
2013-01-25 10:22:00,29.6,20.7,30.13,WSW,252,9.0,9.0,69,0.00,,,0.00,Wunderground v.1.15,2013-01-25 16:22:00,
2013-01-25 10:32:00,29.9,20.6,30.13,West,274,8.0,8.0,68,0.00,,,0.00,Wunderground v.1.15,2013-01-25 16:32:00,
2013-01-25 10:42:00,30.4,20.7,30.13,West,275,9.0,9.0,67,0.00,,,0.00,Wunderground v.1.15,2013-01-25 16:42:00,
2013-01-25 10:52:00,31.5,21.8,30.13,West,281,8.0,10.0,67,0.00,,,0.00,Wunderground v.1.15,2013-01-25 16:52:00,
2013-01-25 11:02:00,30.8,21.1,30.12,West,274,8.0,10.0,67,0.00,,,0.00,Wunderground v.1.15,2013-01-25 17:02:00,
2013-01-25 11:12:00,30.9,21.2,30.12,West,275,8.0,8.0,67,0.00,,,0.00,Wunderground v.1.15,2013-01-25 17:12:00,
2013-01-25 11:22:00,31.4,21.7,30.11,West,262,8.0,13.0,67,0.00,,,0.00,Wunderground v.1.15,2013-01-25 17:22:00,
2013-01-25 11:32:00,31.7,22.0,30.10,West,263,9.0,9.0,67,0.00,,,0.00,Wunderground v.1.15,2013-01-25 17:32:00,
2013-01-25 11:41:00,32.0,21.9,30.09,WSW,254,8.0,8.0,66,0.00,,,0.00,Wunderground v.1.15,2013-01-25 17:41:00,
2013-01-25 11:52:00,31.9,21.8,30.09,NW,308,8.0,8.0,66,0.00,,,0.00,Wunderground v.1.15,2013-01-25 17:52:00,
2013-01-25 12:02:00,32.4,21.9,30.09,WSW,257,8.0,14.0,65,0.00,,,0.00,Wunderground v.1.15,2013-01-25 18:02:00,
2013-01-25 12:12:00,32.9,22.4,30.08,WNW,288,10.0,10.0,65,0.00,,,0.00,Wunderground v.1.15,2013-01-25 18:12:00,
2013-01-25 12:22:00,33.2,22.0,30.08,WSW,252,8.0,12.0,63,0.00,,,0.00,Wunderground v.1.15,2013-01-25 18:22:00,
2013-01-25 12:32:00,33.9,22.2,30.08,West,277,9.0,9.0,62,0.00,,,0.00,Wunderground v.1.15,2013-01-25 18:32:00,
2013-01-25 12:42:00,34.0,22.3,30.07,West,273,9.0,11.0,62,0.00,,,0.00,Wunderground v.1.15,2013-01-25 18:42:00,
2013-01-25 12:52:00,34.1,22.4,30.07,WSW,257,10.0,12.0,62,0.00,,,0.00,Wunderground v.1.15,2013-01-25 18:52:00,
2013-01-25 13:02:00,34.5,22.8,30.06,West,264,9.0,9.0,62,0.00,,,0.00,Wunderground v.1.15,2013-01-25 19:02:00,
2013-01-25 13:12:00,35.0,22.9,30.06,West,274,11.0,11.0,61,0.00,,,0.00,Wunderground v.1.15,2013-01-25 19:12:00,
2013-01-25 13:21:00,35.5,23.4,30.05,WNW,298,10.0,11.0,61,0.00,,,0.00,Wunderground v.1.15,2013-01-25 19:21:00,
2013-01-25 13:32:00,36.0,23.0,30.05,West,275,10.0,10.0,59,0.00,,,0.00,Wunderground v.1.15,2013-01-25 19:32:00,
2013-01-25 13:42:00,36.5,23.5,30.05,WSW,257,10.0,10.0,59,0.00,,,0.00,Wunderground v.1.15,2013-01-25 19:42:00,
2013-01-25 13:52:00,36.5,23.5,30.06,West,271,10.0,10.0,59,0.00,,,0.00,Wunderground v.1.15,2013-01-25 19:52:00,
2013-01-25 14:02:00,37.0,23.2,30.05,West,267,11.0,11.0,57,0.00,,,0.00,Wunderground v.1.15,2013-01-25 20:02:00,
2013-01-25 14:12:00,37.4,24.0,30.06,West,260,10.0,11.0,58,0.00,,,0.00,Wunderground v.1.15,2013-01-25 20:12:00,
2013-01-25 14:22:00,37.6,23.7,30.06,West,265,11.0,11.0,57,0.00,,,0.00,Wunderground v.1.15,2013-01-25 20:22:00,
2013-01-25 14:32:00,37.6,23.3,30.05,West,278,11.0,11.0,56,0.00,,,0.00,Wunderground v.1.15,2013-01-25 20:32:00,
2013-01-25 14:42:00,37.8,23.5,30.05,WSW,256,11.0,17.0,56,0.00,,,0.00,Wunderground v.1.15,2013-01-25 20:42:00,
2013-01-25 14:52:00,37.7,23.0,30.03,WSW,252,13.0,14.0,55,0.00,,,0.00,Wunderground v.1.15,2013-01-25 20:52:00,
2013-01-25 15:02:00,38.1,23.8,30.03,West,271,12.0,19.0,56,0.00,,,0.00,Wunderground v.1.15,2013-01-25 21:02:00,
2013-01-25 15:12:00,38.0,23.7,30.04,West,265,12.0,12.0,56,0.00,,,0.00,Wunderground v.1.15,2013-01-25 21:12:00,
2013-01-25 15:22:00,38.4,24.5,30.04,West,262,11.0,12.0,57,0.00,,,0.00,Wunderground v.1.15,2013-01-25 21:22:00,
2013-01-25 15:32:00,38.4,23.6,30.04,West,267,12.0,12.0,55,0.00,,,0.00,Wunderground v.1.15,2013-01-25 21:32:00,
2013-01-25 15:42:00,38.2,23.9,30.04,West,281,11.0,14.0,56,0.00,,,0.00,Wunderground v.1.15,2013-01-25 21:42:00,
2013-01-25 15:52:00,38.1,23.8,30.04,West,273,11.0,12.0,56,0.00,,,0.00,Wunderground v.1.15,2013-01-25 21:52:00,
2013-01-25 16:02:00,38.0,23.7,30.05,West,260,11.0,18.0,56,0.00,,,0.00,Wunderground v.1.15,2013-01-25 22:02:00,
2013-01-25 16:12:00,37.9,24.0,30.05,West,269,11.0,11.0,57,0.00,,,0.00,Wunderground v.1.15,2013-01-25 22:12:00,
2013-01-25 16:22:00,37.7,24.2,30.05,West,261,9.0,9.0,58,0.00,,,0.00,Wunderground v.1.15,2013-01-25 22:22:00,
2013-01-25 16:32:00,37.3,24.3,30.04,West,267,8.0,8.0,59,0.00,,,0.00,Wunderground v.1.15,2013-01-25 22:32:00,
2013-01-25 16:42:00,36.8,24.6,30.05,West,267,6.0,6.0,61,0.00,,,0.00,Wunderground v.1.15,2013-01-25 22:42:00,
2013-01-25 16:52:00,36.3,24.5,30.05,West,272,5.0,5.0,62,0.00,,,0.00,Wunderground v.1.15,2013-01-25 22:52:00,
2013-01-25 17:02:00,35.6,24.2,30.05,WSW,257,5.0,18.0,63,0.00,,,0.00,Wunderground v.1.15,2013-01-25 23:02:00,
2013-01-25 17:12:00,34.6,24.0,30.05,West,259,4.0,4.0,65,0.00,,,0.00,Wunderground v.1.15,2013-01-25 23:12:00,
2013-01-25 17:22:00,33.7,23.9,30.06,West,259,4.0,5.0,67,0.00,,,0.00,Wunderground v.1.15,2013-01-25 23:22:00,
2013-01-25 17:32:00,33.2,24.1,30.06,West,259,3.0,4.0,69,0.00,,,0.00,Wunderground v.1.15,2013-01-25 23:32:00,
2013-01-25 17:42:00,32.7,24.0,30.06,West,259,4.0,4.0,70,0.00,,,0.00,Wunderground v.1.15,2013-01-25 23:42:00,
2013-01-25 17:52:00,32.2,23.8,30.07,West,259,3.0,4.0,71,0.00,,,0.00,Wunderground v.1.15,2013-01-25 23:52:00,
2013-01-25 18:02:00,32.1,23.8,30.07,West,259,4.0,4.0,71,0.00,,,0.00,Wunderground v.1.15,2013-01-26 00:02:00,
2013-01-25 18:12:00,31.9,23.9,30.08,West,259,2.0,2.0,72,0.00,,,0.00,Wunderground v.1.15,2013-01-26 00:12:00,
2013-01-25 18:22:00,31.4,23.7,30.08,West,259,2.0,2.0,73,0.00,,,0.00,Wunderground v.1.15,2013-01-26 00:22:00,
2013-01-25 18:32:00,31.0,23.4,30.09,West,259,2.0,3.0,73,0.00,,,0.00,Wunderground v.1.15,2013-01-26 00:32:00,
2013-01-25 18:42:00,31.1,23.8,30.10,West,260,3.0,4.0,74,0.00,,,0.00,Wunderground v.1.15,2013-01-26 00:42:00,
2013-01-25 18:52:00,31.6,23.9,30.10,West,281,4.0,4.0,73,0.00,,,0.00,Wunderground v.1.15,2013-01-26 00:52:00,
2013-01-25 19:02:00,32.1,24.4,30.10,NW,309,5.0,5.0,73,0.00,,,0.00,Wunderground v.1.15,2013-01-26 01:02:00,
2013-01-25 19:12:00,32.5,24.1,30.11,NW,309,6.0,6.0,71,0.00,,,0.00,Wunderground v.1.15,2013-01-26 01:12:00,
2013-01-25 19:22:00,33.1,24.4,30.11,WNW,302,8.0,8.0,70,0.00,,,0.00,Wunderground v.1.15,2013-01-26 01:22:00,
2013-01-25 19:32:00,33.4,24.3,30.11,NW,308,7.0,7.0,69,0.00,,,0.00,Wunderground v.1.15,2013-01-26 01:32:00,
2013-01-25 19:42:00,33.3,24.2,30.11,NNW,327,6.0,7.0,69,0.00,,,0.00,Wunderground v.1.15,2013-01-26 01:42:00,
2013-01-25 19:52:00,33.0,23.9,30.12,NW,310,5.0,5.0,69,0.00,,,0.00,Wunderground v.1.15,2013-01-26 01:52:00,
2013-01-25 20:02:00,32.5,24.1,30.12,WNW,298,5.0,7.0,71,0.00,,,0.00,Wunderground v.1.15,2013-01-26 02:02:00,
2013-01-25 20:12:00,32.4,24.0,30.12,NW,306,6.0,6.0,71,0.00,,,0.00,Wunderground v.1.15,2013-01-26 02:12:00,
2013-01-25 20:22:00,31.9,23.9,30.12,NW,311,5.0,5.0,72,0.00,,,0.00,Wunderground v.1.15,2013-01-26 02:22:00,
2013-01-25 20:32:00,31.1,23.8,30.13,NW,311,4.0,4.0,74,0.00,,,0.00,Wunderground v.1.15,2013-01-26 02:32:00,
2013-01-25 20:42:00,30.4,23.4,30.13,NW,311,3.0,5.0,75,0.00,,,0.00,Wunderground v.1.15,2013-01-26 02:42:00,
2013-01-25 20:52:00,30.3,24.0,30.13,WNW,287,4.0,5.0,77,0.00,,,0.00,Wunderground v.1.15,2013-01-26 02:52:00,
2013-01-25 21:02:00,30.4,24.1,30.14,WNW,284,5.0,12.0,77,0.00,,,0.00,Wunderground v.1.15,2013-01-26 03:02:00,
2013-01-25 21:12:00,30.1,23.8,30.14,WNW,284,4.0,5.0,77,0.00,,,0.00,Wunderground v.1.15,2013-01-26 03:12:00,
2013-01-25 21:22:00,30.0,24.0,30.15,WNW,284,5.0,5.0,78,0.00,,,0.00,Wunderground v.1.15,2013-01-26 03:22:00,
2013-01-25 21:32:00,29.9,23.9,30.15,WNW,289,4.0,4.0,78,0.00,,,0.00,Wunderground v.1.15,2013-01-26 03:32:00,
2013-01-25 21:42:00,29.6,23.6,30.15,WNW,303,4.0,4.0,78,0.00,,,0.00,Wunderground v.1.15,2013-01-26 03:42:00,
2013-01-25 21:52:00,29.6,23.9,30.16,NW,313,6.0,6.0,79,0.00,,,0.00,Wunderground v.1.15,2013-01-26 03:52:00,
2013-01-25 22:02:00,29.8,23.8,30.17,NW,313,7.0,10.0,78,0.00,,,0.00,Wunderground v.1.15,2013-01-26 04:02:00,
2013-01-25 22:12:00,29.3,22.4,30.18,NW,323,11.0,15.0,75,0.00,,,0.00,Wunderground v.1.15,2013-01-26 04:12:00,
2013-01-25 22:22:00,28.5,20.3,30.19,North,355,12.0,15.0,71,0.00,,,0.00,Wunderground v.1.15,2013-01-26 04:22:00,
2013-01-25 22:32:00,27.9,19.0,30.19,NW,321,12.0,12.0,69,0.00,,,0.00,Wunderground v.1.15,2013-01-26 04:32:00,
2013-01-25 22:42:00,27.4,18.2,30.19,NW,317,10.0,13.0,68,0.00,,,0.00,Wunderground v.1.15,2013-01-26 04:42:00,
2013-01-25 22:52:00,27.1,18.3,30.20,NNW,329,9.0,10.0,69,0.00,,,0.00,Wunderground v.1.15,2013-01-26 04:52:00,
2013-01-25 23:02:00,26.7,17.9,30.20,NW,312,8.0,14.0,69,0.00,,,0.00,Wunderground v.1.15,2013-01-26 05:02:00,
2013-01-25 23:12:00,26.4,17.6,30.21,NW,310,7.0,11.0,69,0.00,,,0.00,Wunderground v.1.15,2013-01-26 05:12:00,
2013-01-25 23:22:00,26.0,16.9,30.22,NNW,331,8.0,9.0,68,0.00,,,0.00,Wunderground v.1.15,2013-01-26 05:22:00,
2013-01-25 23:32:00,25.3,15.5,30.22,NW,318,9.0,9.0,66,0.00,,,0.00,Wunderground v.1.15,2013-01-26 05:32:00,
2013-01-25 23:42:00,24.7,14.6,30.23,North,355,9.0,9.0,65,0.00,,,0.00,Wunderground v.1.15,2013-01-26 05:42:00,
2013-01-25 23:52:00,24.2,13.8,30.23,NNW,340,9.0,9.0,64,0.00,,,0.00,Wunderground v.1.15,2013-01-26 05:52:00,